| time (UTC) | temp F | wind direction | speed knots | gust knots | rain 1hr in | rain 24hr in | rain mn in | humidity % | barometer mb |
| 20260906103142 | 71 | 17 | 0.0 | 0.9 | 0.00 | 0.00 | 0.00 | 99 | 1013.2 |
| 20260906102637 | 71 | 311 | 0.0 | 0.9 | 0.00 | 0.00 | 0.00 | 99 | 1013.3 |
| 20260906102132 | 71 | 184 | 0.0 | 1.7 | 0.00 | 0.00 | 0.00 | 99 | 1013.2 |
| 20260906101631 | 71 | 58 | 1.7 | 2.6 | 0.00 | 0.00 | 0.00 | 99 | 1013.1 |
| 20260906101131 | 71 | 98 | 0.0 | 2.6 | 0.00 | 0.00 | 0.00 | 99 | 1013.2 |
| 20260906100627 | 71 | 0 | 0.0 | 1.7 | 0.00 | 0.00 | 0.00 | 99 | 1012.8 |
| 20260906100122 | 71 | 20 | 0.0 | 1.7 | 0.00 | 0.00 | 0.00 | 99 | 1012.9 |
| 20260906095621 | 71 | 336 | 0.0 | 0.9 | 0.00 | 0.00 | 0.00 | 99 | 1012.9 |
| 20260906095117 | 71 | 25 | 0.9 | 1.7 | 0.00 | 0.00 | 0.00 | 99 | 1012.9 |
| 20260906094616 | 71 | 336 | 0.0 | 0.9 | 0.00 | 0.00 | 0.00 | 99 | 1012.7 |
| 20260906094112 | 71 | 74 | 2.6 | 2.6 | 0.00 | 0.00 | 0.00 | 99 | 1013.0 |
| 20260906093608 | 71 | 235 | 1.7 | 3.5 | 0.00 | 0.00 | 0.00 | 99 | 1012.9 |
| 20260906093102 | 71 | 297 | 0.0 | 1.7 | 0.00 | 0.00 | 0.00 | 99 | 1012.6 |
| 20260906092558 | 71 | 348 | 0.0 | 0.9 | 0.00 | 0.00 | 0.00 | 99 | 1012.6 |
| 20260906092053 | 70 | 350 | 0.0 | 1.7 | 0.00 | 0.00 | 0.00 | 99 | 1012.7 |
| 20260906091548 | 69 | 36 | 0.0 | 1.7 | 0.00 | 0.00 | 0.00 | 99 | 1012.5 |
| 20260906091045 | 69 | 13 | 0.0 | 0.0 | 0.00 | 0.00 | 0.00 | 99 | 1012.3 |
| 20260906090545 | 69 | 50 | 0.0 | 0.9 | 0.00 | 0.00 | 0.00 | 99 | 1012.4 |
| 20260906090039 | 69 | 157 | 0.0 | 1.7 | 0.00 | 0.00 | 0.00 | 99 | 1012.3 |
| 20260906085538 | 68 | 345 | 0.0 | 0.0 | 0.00 | 0.00 | 0.00 | 99 | 1012.3 |
| 20260906085039 | 68 | 335 | 0.0 | 0.0 | 0.00 | 0.00 | 0.00 | 99 | 1012.1 |
| 20260906084539 | 68 | 283 | 0.9 | 1.7 | 0.00 | 0.00 | 0.00 | 99 | 1011.9 |
| 20260906084037 | 68 | 315 | 0.9 | 1.7 | 0.00 | 0.00 | 0.00 | 99 | 1012.3 |
| 20260906083533 | 68 | 269 | 0.9 | 1.7 | 0.00 | 0.00 | 0.00 | 99 | 1012.1 |
| 20260906083033 | 68 | 303 | 0.0 | 1.7 | 0.00 | 0.00 | 0.00 | 99 | 1011.9 |
| 20260906082528 | 68 | 291 | 1.7 | 1.7 | 0.00 | 0.00 | 0.00 | 99 | 1012.0 |
| 20260906082024 | 68 | 320 | 0.0 | 0.9 | 0.00 | 0.00 | 0.00 | 99 | 1012.0 |
| 20260906081519 | 68 | 310 | 0.0 | 0.9 | 0.00 | 0.00 | 0.00 | 99 | 1012.0 |
| 20260906081015 | 68 | 352 | 0.0 | 0.9 | 0.00 | 0.00 | 0.00 | 99 | 1011.9 |
| 20260906080512 | 68 | 296 | 0.9 | 0.9 | 0.00 | 0.00 | 0.00 | 99 | 1011.7 |
| 20260906080007 | 68 | 321 | 0.0 | 0.9 | 0.00 | 0.00 | 0.00 | 99 | 1011.5 |
| 20260906075501 | 68 | 297 | 0.0 | 1.7 | 0.00 | 0.00 | 0.00 | 99 | 1011.4 |
| 20260906074957 | 68 | 325 | 0.0 | 0.9 | 0.00 | 0.00 | 0.00 | 99 | 1011.8 |
| 20260906074456 | 68 | 269 | 0.9 | 0.9 | 0.00 | 0.00 | 0.00 | 99 | 1011.7 |
| 20260906073954 | 68 | 297 | 0.9 | 1.7 | 0.00 | 0.00 | 0.00 | 99 | 1011.8 |
| 20260906073450 | 68 | 287 | 0.9 | 1.7 | 0.02 | 0.00 | 0.00 | 99 | 1011.8 |
| 20260906072946 | 68 | 281 | 1.7 | 1.7 | 0.02 | 0.00 | 0.00 | 99 | 1012.0 |
| 20260906072441 | 68 | 310 | 0.0 | 1.7 | 0.00 | 0.00 | 0.00 | 99 | 1011.7 |
| 20260906071937 | 68 | 308 | 1.7 | 1.7 | 0.00 | 0.00 | 0.00 | 99 | 1011.8 |
| 20260906071433 | 68 | 278 | 0.9 | 1.7 | 0.00 | 0.00 | 0.00 | 99 | 1012.0 |
| 20260906070929 | 68 | 283 | 0.9 | 1.7 | 0.00 | 0.00 | 0.00 | 99 | 1012.0 |
| 20260906070424 | 68 | 326 | 0.0 | 0.9 | 0.00 | 0.00 | 0.00 | 99 | 1011.9 |
| 20260906065920 | 68 | 307 | 0.0 | 1.7 | 0.00 | 0.00 | 0.00 | 99 | 1012.2 |
| 20260906065414 | 68 | 284 | 1.7 | 1.7 | 0.00 | 0.00 | 0.00 | 99 | 1012.1 |
| 20260906064911 | 68 | 314 | 0.9 | 1.7 | 0.00 | 0.00 | 0.00 | 99 | 1012.3 |
| 20260906064407 | 68 | 295 | 0.9 | 1.7 | 0.00 | 0.00 | 0.00 | 99 | 1012.3 |
| 20260906063906 | 68 | 292 | 0.9 | 0.9 | 0.00 | 0.00 | 0.00 | 99 | 1012.2 |
| 20260906063401 | 68 | 281 | 0.9 | 1.7 | 0.00 | 0.00 | 0.00 | 99 | 1012.2 |
| 20260906062856 | 68 | 326 | 0.0 | 0.9 | 0.00 | 0.00 | 0.00 | 99 | 1012.2 |
| 20260906062355 | 68 | 44 | 0.0 | 0.0 | 0.00 | 0.00 | 0.00 | 99 | 1012.1 |
| 20260906061851 | 68 | 274 | 0.9 | 1.7 | 0.00 | 0.00 | 0.00 | 99 | 1012.3 |
| 20260906061348 | 68 | 323 | 0.0 | 0.0 | 0.00 | 0.00 | 0.00 | 99 | 1012.4 |
| 20260906060842 | 68 | 309 | 0.0 | 0.9 | 0.00 | 0.00 | 0.00 | 99 | 1012.5 |
| 20260906060340 | 69 | 276 | 0.0 | 0.9 | 0.00 | 0.00 | 0.00 | 99 | 1012.4 |
| 20260906055835 | 68 | 317 | 0.0 | 0.9 | 0.00 | 0.00 | 0.00 | 99 | 1012.4 |
| 20260906055331 | 69 | 290 | 0.9 | 1.7 | 0.00 | 0.00 | 0.00 | 99 | 1012.5 |
| 20260906054826 | 69 | 273 | 0.0 | 1.7 | 0.00 | 0.00 | 0.00 | 99 | 1012.3 |
| 20260906054321 | 69 | 306 | 0.0 | 0.9 | 0.00 | 0.00 | 0.00 | 99 | 1012.4 |
| 20260906053818 | 69 | 37 | 0.0 | 0.9 | 0.00 | 0.00 | 0.00 | 99 | 1012.5 |
| 20260906053313 | 69 | 322 | 0.0 | 0.0 | 0.00 | 0.00 | 0.00 | 99 | 1012.5 |
| 20260906052808 | 69 | 316 | 0.9 | 1.7 | 0.00 | 0.00 | 0.00 | 99 | 1012.5 |
| 20260906052306 | 69 | 37 | 0.0 | 0.9 | 0.00 | 0.00 | 0.00 | 99 | 1012.5 |
| 20260906051801 | 69 | 271 | 1.7 | 1.7 | 0.00 | 0.00 | 0.00 | 99 | 1012.4 |
| 20260906051300 | 69 | 269 | 1.7 | 1.7 | 0.00 | 0.00 | 0.00 | 99 | 1012.4 |
| 20260906050756 | 69 | 272 | 0.0 | 0.9 | 0.00 | 0.00 | 0.00 | 99 | 1012.5 |
| 20260906050251 | 69 | 15 | 0.0 | 0.9 | 0.00 | 0.00 | 0.00 | 99 | 1012.6 |
| 20260906045749 | 69 | 267 | 1.7 | 1.7 | 0.00 | 0.00 | 0.00 | 99 | 1012.7 |
| 20260906045244 | 69 | 29 | 0.0 | 0.0 | 0.00 | 0.00 | 0.00 | 99 | 1012.6 |
| 20260906044740 | 69 | 269 | 0.0 | 1.7 | 0.00 | 0.00 | 0.00 | 99 | 1012.9 |
| 20260906044235 | 69 | 32 | 0.0 | 1.7 | 0.00 | 0.00 | 0.00 | 99 | 1013.0 |
| 20260906043731 | 69 | 6 | 0.0 | 0.9 | 0.00 | 0.00 | 0.00 | 99 | 1012.9 |
| 20260906043227 | 69 | 273 | 0.9 | 0.9 | 0.00 | 0.00 | 0.00 | 99 | 1013.0 |
| 20260906042727 | 70 | 315 | 0.0 | 1.7 | 0.00 | 0.00 | 0.00 | 99 | 1013.1 |
| 20260906042225 | 70 | 283 | 0.0 | 0.9 | 0.00 | 0.00 | 0.00 | 99 | 1013.2 |
| 20260906041721 | 70 | 55 | 0.0 | 0.9 | 0.00 | 0.00 | 0.00 | 99 | 1013.3 |
| 20260906041211 | 70 | 246 | 0.0 | 0.0 | 0.00 | 0.00 | 0.00 | 99 | 1013.3 |
| 20260906040707 | 70 | 309 | 0.0 | 0.9 | 0.00 | 0.00 | 0.00 | 99 | 1013.0 |
| 20260906040202 | 70 | 322 | 0.0 | 0.9 | 0.00 | 0.00 | 0.00 | 99 | 1013.1 |
| 20260906035658 | 70 | 289 | 0.0 | 1.7 | 0.00 | 0.30 | 0.30 | 99 | 1013.1 |
| 20260906035153 | 70 | 32 | 0.0 | 0.0 | 0.00 | 0.30 | 0.30 | 99 | 1013.4 |
| 20260906034652 | 70 | 66 | 0.9 | 1.7 | 0.00 | 0.30 | 0.30 | 99 | 1013.5 |
| 20260906034147 | 70 | 252 | 0.9 | 1.7 | 0.00 | 0.30 | 0.30 | 99 | 1013.4 |
| 20260906033643 | 70 | 259 | 0.9 | 1.7 | 0.00 | 0.30 | 0.30 | 99 | 1013.4 |
| 20260906033138 | 71 | 339 | 0.0 | 0.0 | 0.00 | 0.30 | 0.30 | 99 | 1013.1 |
| 20260906032635 | 71 | 32 | 0.0 | 0.9 | 0.00 | 0.30 | 0.30 | 99 | 1013.3 |
| 20260906032134 | 71 | 265 | 0.9 | 1.7 | 0.00 | 0.30 | 0.30 | 99 | 1013.1 |
| 20260906031630 | 71 | 89 | 0.0 | 1.7 | 0.00 | 0.30 | 0.30 | 99 | 1013.1 |
| 20260906031125 | 71 | 113 | 0.0 | 0.9 | 0.00 | 0.30 | 0.30 | 99 | 1012.9 |
| 20260906030624 | 71 | 272 | 1.7 | 2.6 | 0.00 | 0.30 | 0.30 | 99 | 1012.7 |
| 20260906030120 | 71 | 294 | 1.7 | 1.7 | 0.00 | 0.30 | 0.30 | 99 | 1012.5 |
| 20260906025619 | 71 | 269 | 1.7 | 2.6 | 0.00 | 0.30 | 0.30 | 99 | 1012.5 |
| 20260906025118 | 71 | 282 | 1.7 | 2.6 | 0.00 | 0.30 | 0.30 | 99 | 1012.7 |
| 20260906024613 | 71 | 267 | 1.7 | 2.6 | 0.00 | 0.30 | 0.30 | 99 | 1012.7 |
| 20260906024107 | 71 | 271 | 1.7 | 2.6 | 0.00 | 0.30 | 0.30 | 99 | 1012.5 |
| 20260906023603 | 71 | 284 | 1.7 | 1.7 | 0.00 | 0.30 | 0.30 | 99 | 1012.6 |
| 20260906023057 | 71 | 276 | 0.9 | 1.7 | 0.00 | 0.30 | 0.30 | 99 | 1012.6 |
| 20260906022552 | 71 | 277 | 0.9 | 1.7 | 0.00 | 0.30 | 0.30 | 99 | 1012.6 |
| 20260906022048 | 71 | 284 | 1.7 | 1.7 | 0.00 | 0.30 | 0.30 | 99 | 1012.7 |
| 20260906021544 | 71 | 272 | 0.9 | 2.6 | 0.00 | 0.30 | 0.30 | 99 | 1012.5 |
| 20260906021043 | 71 | 248 | 1.7 | 2.6 | 0.00 | 0.30 | 0.30 | 99 | 1012.5 |
| 20260906020542 | 71 | 259 | 0.9 | 1.7 | 0.00 | 0.30 | 0.30 | 99 | 1012.5 |
| 20260906020036 | 71 | 290 | 1.7 | 1.7 | 0.00 | 0.30 | 0.30 | 99 | 1012.4 |
| 20260906015535 | 71 | 261 | 0.0 | 1.7 | 0.00 | 0.30 | 0.30 | 99 | 1012.4 |
| 20260906015030 | 71 | 256 | 0.0 | 1.7 | 0.00 | 0.30 | 0.30 | 99 | 1012.6 |
| 20260906014525 | 71 | 276 | 0.9 | 1.7 | 0.00 | 0.30 | 0.30 | 99 | 1012.4 |
| 20260906014021 | 71 | 299 | 0.0 | 1.7 | 0.00 | 0.30 | 0.30 | 99 | 1012.3 |
| 20260906013516 | 71 | 304 | 0.9 | 1.7 | 0.00 | 0.30 | 0.30 | 99 | 1012.4 |
| 20260906013011 | 71 | 286 | 1.7 | 1.7 | 0.00 | 0.30 | 0.30 | 99 | 1012.5 |
| 20260906012507 | 71 | 286 | 1.7 | 2.6 | 0.00 | 0.30 | 0.30 | 99 | 1012.3 |
| 20260906012006 | 71 | 272 | 1.7 | 1.7 | 0.00 | 0.30 | 0.30 | 99 | 1012.4 |
| 20260906011502 | 71 | 267 | 1.7 | 1.7 | 0.00 | 0.30 | 0.30 | 99 | 1012.2 |
| 20260906011002 | 71 | 268 | 1.7 | 1.7 | 0.00 | 0.30 | 0.30 | 99 | 1012.2 |
| 20260906010457 | 71 | 273 | 0.9 | 1.7 | 0.00 | 0.30 | 0.30 | 99 | 1012.0 |
| 20260906005954 | 71 | 319 | 0.0 | 0.9 | 0.00 | 0.30 | 0.30 | 99 | 1012.1 |
| 20260906005452 | 71 | 311 | 0.9 | 0.9 | 0.00 | 0.30 | 0.30 | 99 | 1012.0 |
| 20260906004951 | 71 | 269 | 0.9 | 1.7 | 0.00 | 0.30 | 0.30 | 99 | 1012.0 |
| 20260906004451 | 71 | 288 | 1.7 | 2.6 | 0.00 | 0.30 | 0.30 | 99 | 1011.9 |
| 20260906003947 | 71 | 274 | 1.7 | 2.6 | 0.00 | 0.30 | 0.30 | 99 | 1012.0 |
| 20260906003442 | 71 | 266 | 1.7 | 2.6 | 0.00 | 0.30 | 0.30 | 99 | 1012.0 |
| 20260906002937 | 71 | 283 | 2.6 | 2.6 | 0.00 | 0.30 | 0.30 | 99 | 1012.0 |
| 20260906002436 | 71 | 281 | 1.7 | 1.7 | 0.00 | 0.30 | 0.30 | 99 | 1011.9 |
| 20260906001932 | 71 | 291 | 1.7 | 2.6 | 0.00 | 0.30 | 0.30 | 99 | 1012.0 |
| 20260906001427 | 71 | 293 | 2.6 | 2.6 | 0.00 | 0.30 | 0.30 | 99 | 1012.0 |
| 20260906000917 | 71 | 269 | 1.7 | 1.7 | 0.00 | 0.30 | 0.30 | 99 | 1011.9 |
| 20260906000412 | 71 | 275 | 1.7 | 1.7 | 0.00 | 0.30 | 0.30 | 99 | 1011.9 |
| 20260905235907 | 71 | 271 | 1.7 | 1.7 | 0.00 | 0.30 | 0.30 | 99 | 1011.7 |
| 20260905235401 | 71 | 280 | 1.7 | 1.7 | 0.00 | 0.30 | 0.30 | 99 | 1011.9 |
| 20260905234856 | 71 | 274 | 0.9 | 1.7 | 0.00 | 0.30 | 0.30 | 99 | 1011.8 |
| 20260905234351 | 71 | 293 | 0.0 | 1.7 | 0.00 | 0.30 | 0.30 | 99 | 1011.5 |
| 20260905233841 | 72 | 323 | 0.0 | 0.9 | 0.00 | 0.30 | 0.30 | 99 | 1011.5 |
| 20260905233336 | 72 | 269 | 0.0 | 0.9 | 0.00 | 0.30 | 0.30 | 99 | 1011.3 |
| 20260905232835 | 72 | 279 | 1.7 | 1.7 | 0.00 | 0.30 | 0.30 | 99 | 1011.3 |
| 20260905232331 | 72 | 246 | 0.0 | 0.9 | 0.00 | 0.30 | 0.30 | 99 | 1011.1 |
| 20260905231826 | 73 | 288 | 0.9 | 1.7 | 0.00 | 0.30 | 0.30 | 99 | 1011.4 |
| 20260905231321 | 73 | 282 | 0.9 | 1.7 | 0.00 | 0.30 | 0.30 | 99 | 1011.3 |
| 20260905230818 | 73 | 247 | 1.7 | 1.7 | 0.00 | 0.30 | 0.30 | 99 | 1011.0 |
| 20260905230316 | 73 | 294 | 1.7 | 2.6 | 0.00 | 0.30 | 0.30 | 99 | 1010.9 |
| 20260905225815 | 73 | 275 | 1.7 | 2.6 | 0.00 | 0.30 | 0.30 | 99 | 1011.0 |
| 20260905225310 | 73 | 271 | 0.0 | 2.6 | 0.00 | 0.30 | 0.30 | 99 | 1011.0 |
| 20260905224809 | 73 | 264 | 0.0 | 1.7 | 0.00 | 0.30 | 0.30 | 99 | 1011.1 |
| 20260905224305 | 73 | 259 | 1.7 | 1.7 | 0.00 | 0.30 | 0.30 | 99 | 1011.0 |
| 20260905223800 | 73 | 263 | 0.9 | 1.7 | 0.00 | 0.30 | 0.30 | 99 | 1011.2 |
| 20260905223258 | 73 | 256 | 0.9 | 2.6 | 0.00 | 0.30 | 0.30 | 99 | 1011.1 |
| 20260905222753 | 73 | 277 | 1.7 | 2.6 | 0.00 | 0.30 | 0.30 | 99 | 1011.5 |
| 20260905222251 | 74 | 292 | 0.0 | 1.7 | 0.00 | 0.30 | 0.30 | 99 | 1011.7 |
| 20260905221748 | 73 | 251 | 1.7 | 3.5 | 0.00 | 0.30 | 0.30 | 99 | 1011.8 |
| 20260905221244 | 74 | 259 | 0.9 | 1.7 | 0.00 | 0.30 | 0.30 | 99 | 1011.7 |
| 20260905220740 | 74 | 309 | 0.0 | 1.7 | 0.00 | 0.30 | 0.30 | 99 | 1011.8 |
| 20260905220236 | 74 | 307 | 0.0 | 1.7 | 0.00 | 0.30 | 0.30 | 99 | 1012.0 |
| 20260905215735 | 74 | 290 | 0.9 | 0.9 | 0.00 | 0.30 | 0.30 | 99 | 1011.9 |
| 20260905215231 | 74 | 326 | 0.0 | 0.9 | 0.00 | 0.30 | 0.30 | 99 | 1011.7 |
| 20260905214727 | 73 | 235 | 0.0 | 0.9 | 0.00 | 0.30 | 0.30 | 99 | 1012.0 |
| 20260905214222 | 73 | 282 | 1.7 | 2.6 | 0.00 | 0.30 | 0.30 | 99 | 1011.9 |
| 20260905213717 | 73 | 304 | 3.5 | 3.5 | 0.00 | 0.30 | 0.30 | 99 | 1011.8 |
| 20260905213213 | 74 | 315 | 0.0 | 1.7 | 0.00 | 0.30 | 0.30 | 99 | 1011.9 |
| 20260905212708 | 73 | 247 | 0.0 | 1.7 | 0.00 | 0.30 | 0.30 | 99 | 1012.0 |
| 20260905212207 | 73 | 276 | 1.7 | 1.7 | 0.00 | 0.30 | 0.30 | 99 | 1012.2 |
| 20260905211702 | 73 | 312 | 0.0 | 1.7 | 0.00 | 0.30 | 0.30 | 99 | 1012.0 |
| 20260905211157 | 73 | 333 | 0.0 | 1.7 | 0.00 | 0.30 | 0.30 | 99 | 1012.5 |
| 20260905210654 | 72 | 359 | 0.9 | 1.7 | 0.00 | 0.30 | 0.30 | 99 | 1012.4 |
| 20260905210154 | 72 | 311 | 0.0 | 1.7 | 0.00 | 0.30 | 0.30 | 99 | 1012.6 |
| 20260905205653 | 72 | 319 | 0.9 | 1.7 | 0.00 | 0.30 | 0.30 | 99 | 1012.6 |
| 20260905205153 | 73 | 300 | 1.7 | 2.6 | 0.00 | 0.30 | 0.30 | 99 | 1012.5 |
| 20260905204652 | 73 | 300 | 1.7 | 2.6 | 0.00 | 0.30 | 0.30 | 99 | 1012.1 |
| 20260905204147 | 69 | 352 | 2.6 | 2.6 | 0.00 | 0.30 | 0.30 | 99 | 1012.2 |
| 20260905203642 | 69 | 352 | 2.6 | 2.6 | 0.00 | 0.30 | 0.30 | 99 | 1011.7 |
| 20260905203138 | 69 | 352 | 2.6 | 2.6 | 0.00 | 0.30 | 0.30 | 99 | 1011.4 |
| 20260905202633 | 69 | 352 | 2.6 | 2.6 | 0.00 | 0.30 | 0.30 | 99 | 1011.4 |
| 20260905202128 | 69 | 352 | 2.6 | 2.6 | 0.00 | 0.30 | 0.30 | 99 | 1011.7 |
| 20260905201624 | 69 | 352 | 2.6 | 2.6 | 0.00 | 0.30 | 0.30 | 99 | 1011.8 |
| 20260905201123 | 69 | 352 | 2.6 | 2.6 | 0.00 | 0.30 | 0.30 | 99 | 1011.9 |
| 20260905200619 | 69 | 352 | 2.6 | 2.6 | 0.00 | 0.30 | 0.30 | 99 | 1012.1 |
| 20260905200114 | 69 | 352 | 2.6 | 2.6 | 0.00 | 0.30 | 0.30 | 99 | 1012.1 |
| 20260905195613 | 69 | 352 | 2.6 | 2.6 | 0.00 | 0.30 | 0.30 | 99 | 1012.5 |
| 20260905195108 | 69 | 352 | 2.6 | 2.6 | 0.00 | 0.30 | 0.30 | 99 | 1012.3 |
| 20260905194608 | 69 | 348 | 2.6 | 4.3 | 0.00 | 0.30 | 0.30 | 99 | 1012.7 |
| 20260905194108 | 69 | 345 | 3.5 | 3.5 | 0.00 | 0.30 | 0.30 | 99 | 1012.5 |
| 20260905193602 | 69 | 347 | 3.5 | 3.5 | 0.00 | 0.30 | 0.30 | 99 | 1012.3 |
| 20260905193057 | 69 | 323 | 3.5 | 4.3 | 0.02 | 0.30 | 0.30 | 99 | 1012.1 |
| 20260905192553 | 69 | 333 | 3.5 | 3.5 | 0.02 | 0.30 | 0.30 | 99 | 1011.4 |
| 20260905192050 | 69 | 1 | 2.6 | 3.5 | 0.00 | 0.30 | 0.30 | 99 | 1011.2 |
| 20260905191548 | 69 | 21 | 1.7 | 1.7 | 0.00 | 0.30 | 0.30 | 99 | 1012.0 |
| 20260905191047 | 68 | 11 | 1.7 | 1.7 | 0.00 | 0.30 | 0.30 | 99 | 1012.4 |
| 20260905190545 | 68 | 293 | 1.7 | 2.6 | 0.17 | 0.30 | 0.30 | 99 | 1012.8 |
| 20260905190039 | 69 | 312 | 0.9 | 1.7 | 0.61 | 0.29 | 0.29 | 99 | 1012.8 |
| 20260905185539 | 69 | 172 | 0.9 | 2.6 | 1.44 | 0.24 | 0.24 | 99 | 1012.5 |
| 20260905185038 | 69 | 154 | 3.5 | 13.0 | 0.94 | 0.16 | 0.16 | 98 | 1013.1 |
| 20260905184532 | 77 | 246 | 9.6 | 18.2 | 0.00 | 0.00 | 0.00 | 83 | 1011.8 |
| 20260905184031 | 87 | 219 | 8.7 | 9.6 | 0.00 | 0.00 | 0.00 | 68 | 1012.4 |
| 20260905183531 | 89 | 78 | 0.0 | 1.7 | 0.00 | 0.00 | 0.00 | 65 | 1011.3 |
| 20260905183026 | 90 | 77 | 0.0 | 0.9 | 0.00 | 0.00 | 0.00 | 63 | 1011.3 |
| 20260905182521 | 91 | 239 | 1.7 | 2.6 | 0.00 | 0.00 | 0.00 | 61 | 1011.2 |
| 20260905182020 | 91 | 255 | 0.9 | 1.7 | 0.00 | 0.00 | 0.00 | 61 | 1011.4 |
| 20260905181515 | 92 | 250 | 1.7 | 3.5 | 0.00 | 0.00 | 0.00 | 57 | 1011.7 |
| 20260905181015 | 93 | 129 | 0.0 | 2.6 | 0.00 | 0.00 | 0.00 | 57 | 1011.7 |
| 20260905180510 | 93 | 231 | 0.0 | 4.3 | 0.00 | 0.00 | 0.00 | 56 | 1012.1 |
| 20260905180005 | 94 | 302 | 1.7 | 7.0 | 0.00 | 0.00 | 0.00 | 57 | 1012.1 |
| 20260905175504 | 94 | 62 | 1.7 | 1.7 | 0.00 | 0.00 | 0.00 | 56 | 1012.1 |
| 20260905175000 | 95 | 292 | 2.6 | 4.3 | 0.00 | 0.00 | 0.00 | 55 | 1012.1 |
| 20260905174455 | 94 | 232 | 3.5 | 8.7 | 0.00 | 0.00 | 0.00 | 56 | 1012.2 |
| 20260905173951 | 94 | 16 | 4.3 | 7.0 | 0.00 | 0.00 | 0.00 | 54 | 1012.3 |
| 20260905173447 | 94 | 243 | 2.6 | 5.2 | 0.00 | 0.00 | 0.00 | 55 | 1012.7 |
| 20260905172942 | 93 | 68 | 1.7 | 5.2 | 0.00 | 0.00 | 0.00 | 55 | 1012.7 |
| 20260905172440 | 92 | 240 | 6.1 | 7.0 | 0.00 | 0.00 | 0.00 | 57 | 1013.1 |
| 20260905171936 | 92 | 344 | 1.7 | 5.2 | 0.00 | 0.00 | 0.00 | 59 | 1013.2 |
| 20260905171432 | 92 | 237 | 4.3 | 9.6 | 0.00 | 0.00 | 0.00 | 58 | 1013.1 |
| 20260905170928 | 92 | 242 | 4.3 | 7.8 | 0.00 | 0.00 | 0.00 | 58 | 1013.2 |
| 20260905170424 | 92 | 238 | 3.5 | 7.8 | 0.00 | 0.00 | 0.00 | 57 | 1013.3 |
| 20260905165924 | 93 | 153 | 0.9 | 7.8 | 0.00 | 0.00 | 0.00 | 57 | 1013.4 |
| 20260905165419 | 93 | 268 | 0.0 | 5.2 | 0.00 | 0.00 | 0.00 | 57 | 1013.3 |
| 20260905164915 | 93 | 256 | 2.6 | 4.3 | 0.00 | 0.00 | 0.00 | 56 | 1013.2 |
| 20260905164409 | 93 | 194 | 3.5 | 11.3 | 0.00 | 0.00 | 0.00 | 56 | 1013.4 |
| 20260905163904 | 93 | 145 | 2.6 | 4.3 | 0.00 | 0.00 | 0.00 | 55 | 1013.2 |
| 20260905163401 | 93 | 216 | 0.0 | 4.3 | 0.00 | 0.00 | 0.00 | 55 | 1013.6 |
| 20260905162856 | 92 | 235 | 2.6 | 7.8 | 0.00 | 0.00 | 0.00 | 58 | 1013.4 |
| 20260905162355 | 92 | 300 | 6.1 | 7.8 | 0.00 | 0.00 | 0.00 | 58 | 1013.5 |
| 20260905161850 | 93 | 293 | 4.3 | 5.2 | 0.00 | 0.00 | 0.00 | 58 | 1013.6 |
| 20260905161349 | 92 | 260 | 1.7 | 5.2 | 0.00 | 0.00 | 0.00 | 59 | 1013.6 |
| 20260905160848 | 92 | 272 | 0.9 | 3.5 | 0.00 | 0.00 | 0.00 | 61 | 1013.7 |
| 20260905160342 | 91 | 104 | 3.5 | 7.0 | 0.00 | 0.00 | 0.00 | 59 | 1013.8 |
| 20260905155837 | 92 | 238 | 1.7 | 3.5 | 0.00 | 0.00 | 0.00 | 61 | 1013.9 |
| 20260905155336 | 91 | 284 | 1.7 | 2.6 | 0.00 | 0.00 | 0.00 | 62 | 1013.6 |
| 20260905154830 | 90 | 246 | 1.7 | 6.1 | 0.00 | 0.00 | 0.00 | 63 | 1013.8 |
| 20260905154326 | 91 | 210 | 2.6 | 3.5 | 0.00 | 0.00 | 0.00 | 62 | 1013.9 |
| 20260905153821 | 90 | 246 | 1.7 | 5.2 | 0.00 | 0.00 | 0.00 | 64 | 1013.9 |
| 20260905153318 | 91 | 237 | 0.9 | 2.6 | 0.00 | 0.00 | 0.00 | 63 | 1013.8 |
| 20260905152817 | 90 | 261 | 1.7 | 3.5 | 0.00 | 0.00 | 0.00 | 63 | 1013.8 |
| 20260905152317 | 90 | 315 | 1.7 | 3.5 | 0.00 | 0.00 | 0.00 | 64 | 1013.9 |
| 20260905151812 | 89 | 251 | 3.5 | 7.0 | 0.00 | 0.00 | 0.00 | 67 | 1014.1 |
| 20260905151308 | 89 | 273 | 2.6 | 4.3 | 0.00 | 0.00 | 0.00 | 64 | 1014.1 |
| 20260905150807 | 89 | 267 | 1.7 | 4.3 | 0.00 | 0.00 | 0.00 | 66 | 1014.1 |
| 20260905150302 | 88 | 245 | 1.7 | 7.8 | 0.00 | 0.00 | 0.00 | 67 | 1014.0 |
| 20260905145759 | 88 | 277 | 3.5 | 5.2 | 0.00 | 0.00 | 0.00 | 66 | 1014.2 |
| 20260905145259 | 89 | 237 | 0.0 | 2.6 | 0.00 | 0.00 | 0.00 | 69 | 1014.1 |
| 20260905144757 | 88 | 308 | 4.3 | 4.3 | 0.00 | 0.00 | 0.00 | 66 | 1014.2 |
| 20260905144254 | 89 | 246 | 6.1 | 6.1 | 0.00 | 0.00 | 0.00 | 66 | 1014.2 |
| 20260905143752 | 87 | 343 | 0.0 | 3.5 | 0.00 | 0.00 | 0.00 | 69 | 1014.2 |
| 20260905143247 | 87 | 247 | 1.7 | 3.5 | 0.00 | 0.00 | 0.00 | 70 | 1014.2 |
| 20260905142745 | 87 | 308 | 2.6 | 4.3 | 0.00 | 0.00 | 0.00 | 70 | 1014.1 |
| 20260905142240 | 86 | 263 | 1.7 | 2.6 | 0.00 | 0.00 | 0.00 | 72 | 1014.0 |
| 20260905141736 | 86 | 259 | 1.7 | 3.5 | 0.00 | 0.00 | 0.00 | 72 | 1013.9 |
| 20260905141231 | 86 | 280 | 3.5 | 3.5 | 0.00 | 0.00 | 0.00 | 72 | 1014.0 |
| 20260905140721 | 85 | 238 | 6.1 | 6.1 | 0.00 | 0.00 | 0.00 | 73 | 1013.9 |
| 20260905140220 | 85 | 239 | 2.6 | 6.1 | 0.00 | 0.00 | 0.00 | 72 | 1013.9 |
| 20260905135714 | 86 | 250 | 0.0 | 1.7 | 0.00 | 0.00 | 0.00 | 72 | 1013.9 |
| 20260905135211 | 84 | 264 | 2.6 | 2.6 | 0.00 | 0.00 | 0.00 | 73 | 1014.1 |
| 20260905134710 | 84 | 245 | 1.7 | 4.3 | 0.00 | 0.00 | 0.00 | 74 | 1014.0 |
| 20260905134209 | 83 | 260 | 1.7 | 6.1 | 0.00 | 0.00 | 0.00 | 76 | 1013.9 |
| 20260905133704 | 83 | 240 | 5.2 | 5.2 | 0.00 | 0.00 | 0.00 | 77 | 1014.0 |
| 20260905133159 | 83 | 257 | 1.7 | 2.6 | 0.00 | 0.00 | 0.00 | 78 | 1014.1 |
| 20260905132658 | 81 | 262 | 1.7 | 2.6 | 0.00 | 0.00 | 0.00 | 81 | 1014.1 |
| 20260905132154 | 81 | 292 | 1.7 | 1.7 | 0.00 | 0.00 | 0.00 | 81 | 1014.0 |
| 20260905131649 | 80 | 219 | 0.0 | 1.7 | 0.00 | 0.00 | 0.00 | 82 | 1014.2 |
| 20260905131149 | 79 | 281 | 1.7 | 3.5 | 0.00 | 0.00 | 0.00 | 84 | 1014.2 |
| 20260905130644 | 78 | 327 | 0.9 | 2.6 | 0.00 | 0.00 | 0.00 | 87 | 1014.2 |
| 20260905130144 | 78 | 284 | 1.7 | 5.2 | 0.00 | 0.00 | 0.00 | 86 | 1014.3 |
| 20260905125638 | 77 | 280 | 1.7 | 2.6 | 0.00 | 0.00 | 0.00 | 90 | 1014.4 |
| 20260905125134 | 77 | 280 | 3.5 | 4.3 | 0.00 | 0.00 | 0.00 | 91 | 1014.3 |
| 20260905124630 | 76 | 204 | 1.7 | 2.6 | 0.00 | 0.00 | 0.00 | 91 | 1014.6 |
| 20260905124126 | 75 | 306 | 1.7 | 1.7 | 0.00 | 0.00 | 0.00 | 94 | 1014.6 |
| 20260905123622 | 74 | 0 | 0.0 | 1.7 | 0.00 | 0.00 | 0.00 | 96 | 1014.4 |
| 20260905123119 | 73 | 188 | 0.9 | 1.7 | 0.00 | 0.00 | 0.00 | 98 | 1014.3 |
| 20260905122618 | 73 | 315 | 0.0 | 1.7 | 0.00 | 0.00 | 0.00 | 98 | 1014.3 |
| 20260905122113 | 72 | 329 | 0.0 | 1.7 | 0.00 | 0.00 | 0.00 | 99 | 1014.3 |
| 20260905121607 | 72 | 265 | 0.9 | 1.7 | 0.00 | 0.00 | 0.00 | 99 | 1014.4 |
| 20260905121102 | 71 | 290 | 0.0 | 1.7 | 0.00 | 0.00 | 0.00 | 99 | 1014.4 |
| 20260905120556 | 71 | 283 | 0.0 | 1.7 | 0.00 | 0.00 | 0.00 | 99 | 1014.3 |
| 20260905120051 | 70 | 305 | 0.9 | 1.7 | 0.00 | 0.00 | 0.00 | 99 | 1014.3 |
| 20260905115550 | 70 | 21 | 0.0 | 1.7 | 0.00 | 0.00 | 0.00 | 99 | 1014.3 |
| 20260905115044 | 70 | 283 | 0.0 | 1.7 | 0.00 | 0.00 | 0.00 | 99 | 1014.3 |
| 20260905114544 | 70 | 19 | 0.0 | 1.7 | 0.00 | 0.00 | 0.00 | 99 | 1014.1 |
| 20260905114038 | 70 | 47 | 0.9 | 1.7 | 0.00 | 0.00 | 0.00 | 99 | 1014.2 |
| 20260905113533 | 70 | 145 | 0.0 | 1.7 | 0.00 | 0.00 | 0.00 | 99 | 1014.0 |
| 20260905113028 | 69 | 5 | 0.0 | 1.7 | 0.00 | 0.00 | 0.00 | 99 | 1013.7 |
| 20260905112523 | 69 | 308 | 0.0 | 0.9 | 0.00 | 0.00 | 0.00 | 99 | 1013.6 |
| 20260905112019 | 69 | 281 | 0.0 | 0.9 | 0.00 | 0.00 | 0.00 | 99 | 1013.7 |
| 20260905111518 | 69 | 314 | 0.9 | 1.7 | 0.00 | 0.00 | 0.00 | 99 | 1013.8 |
| 20260905111018 | 69 | 269 | 0.0 | 1.7 | 0.00 | 0.00 | 0.00 | 99 | 1013.5 |
| 20260905110517 | 69 | 14 | 0.0 | 1.7 | 0.00 | 0.00 | 0.00 | 99 | 1013.8 |
| 20260905110013 | 69 | 9 | 0.0 | 0.9 | 0.00 | 0.00 | 0.00 | 99 | 1013.5 |
| 20260905105508 | 69 | 338 | 0.0 | 0.9 | 0.00 | 0.00 | 0.00 | 99 | 1013.4 |
| 20260905105007 | 69 | 26 | 0.0 | 0.9 | 0.00 | 0.00 | 0.00 | 99 | 1013.4 |
| 20260905104503 | 70 | 322 | 0.0 | 1.7 | 0.00 | 0.00 | 0.00 | 99 | 1013.4 |
| 20260905103957 | 70 | 294 | 0.0 | 1.7 | 0.00 | 0.00 | 0.00 | 99 | 1013.5 |